SMOKE11 ETSN-ETSN

Flight info

Callsign SMOKE11
Flight time 2h 44m
Altitude 40000
Route ETSN2M DONIX DCT REDNI DCT VALAR DCT EEDER DCT OSB DCT NDO/M085F240 STAY1/0130 WTM/M085F410 DCT EKKIH DCT IBAGU DCT BIGGE DCT GISAT DCT CELQU DCT NEU DCT
Aircraft EUFI/M-GILRTUVZ/S

Departure

Time 2026-05-06 17:36
Airport Neuburg Air Base (ETSN)

Arrival

Time 2026-05-06 20:21
Airport Neuburg Air Base (ETSN)
Time Latitude Longitude Altitude Speed Heading
2026-05-06 16:32 48.70837 11.22903 1251 ft 0 kts 228°
2026-05-06 17:07 48.70826 11.22880 1251 ft 9 kts 250°
2026-05-06 17:07 48.70885 11.22774 1251 ft 15 kts 358°
2026-05-06 17:08 48.70969 11.22824 1252 ft 11 kts 16°
2026-05-06 17:08 48.71002 11.22884 1252 ft 10 kts 90°
2026-05-06 17:08 48.70990 11.22972 1261 ft 5 kts 175°
2026-05-06 17:08 48.70979 11.22972 1256 ft 0 kts 180°
2026-05-06 17:33 48.70963 11.22987 1235 ft 3 kts 70°
2026-05-06 17:33 48.70998 11.22989 1261 ft 5 kts 50°
2026-05-06 17:34 48.71002 11.23086 1251 ft 7 kts 91°
2026-05-06 17:34 48.71003 11.23127 1251 ft 0 kts 76°
2026-05-06 17:35 48.71006 11.23140 1258 ft 7 kts 65°
2026-05-06 17:35 48.71076 11.23173 1260 ft 11 kts 351°
2026-05-06 17:35 48.71095 11.23105 1251 ft 6 kts 271°
2026-05-06 17:36 48.71095 11.23058 1252 ft 0 kts 271°
2026-05-06 17:36 48.71100 11.22523 1252 ft 143 kts 270°
2026-05-06 17:36 48.71119 11.20438 1679 ft 231 kts 271°
2026-05-06 17:36 48.71100 11.17588 2952 ft 294 kts 269°
2026-05-06 17:37 48.71027 11.14432 4311 ft 303 kts 268°
2026-05-06 17:37 48.70923 11.11209 5731 ft 307 kts 266°
2026-05-06 17:37 48.70782 11.07898 7144 ft 316 kts 264°
2026-05-06 17:37 48.70632 11.04560 8602 ft 324 kts 264°
2026-05-06 17:38 48.70475 11.01164 10151 ft 327 kts 264°
2026-05-06 17:38 48.70314 10.97694 11633 ft 334 kts 264°
2026-05-06 17:38 48.70155 10.94136 13245 ft 346 kts 264°
2026-05-06 17:38 48.69999 10.90466 14820 ft 350 kts 264°
2026-05-06 17:39 48.70205 10.86749 16456 ft 369 kts 285°
2026-05-06 17:39 48.71551 10.83264 17989 ft 393 kts 313°
2026-05-06 17:39 48.73887 10.81051 19220 ft 420 kts 339°
2026-05-06 17:39 48.76767 10.80287 20141 ft 417 kts 353°
2026-05-06 17:40 48.79685 10.79866 21394 ft 425 kts 353°
2026-05-06 17:40 48.82678 10.79441 23062 ft 439 kts 353°
2026-05-06 17:40 48.85642 10.79020 24721 ft 447 kts 353°
2026-05-06 17:40 48.88743 10.78577 26343 ft 448 kts 353°
2026-05-06 17:41 48.91828 10.78091 27825 ft 444 kts 353°
2026-05-06 17:41 48.94840 10.77610 29473 ft 441 kts 353°
2026-05-06 17:41 48.97898 10.77121 31132 ft 437 kts 352°
2026-05-06 17:41 49.00952 10.76631 32638 ft 443 kts 351°
2026-05-06 17:42 49.04021 10.76139 33813 ft 443 kts 351°
2026-05-06 17:42 49.07078 10.75648 34932 ft 436 kts 351°
2026-05-06 17:42 49.10103 10.75164 36097 ft 439 kts 351°
2026-05-06 17:42 49.13136 10.74679 36892 ft 437 kts 351°
2026-05-06 17:43 49.16165 10.74196 37287 ft 430 kts 351°
2026-05-06 17:43 49.19100 10.73645 37476 ft 424 kts 344°
2026-05-06 17:43 49.21744 10.72333 37457 ft 388 kts 330°
2026-05-06 17:43 49.24119 10.70354 37141 ft 393 kts 322°
2026-05-06 17:44 49.26422 10.68113 36850 ft 402 kts 323°
2026-05-06 17:44 49.28915 10.65674 36258 ft 457 kts 322°
2026-05-06 17:44 49.31745 10.62829 36120 ft 500 kts 323°
2026-05-06 17:44 49.34771 10.59860 36463 ft 532 kts 324°
2026-05-06 17:45 49.37962 10.56815 37141 ft 540 kts 324°
2026-05-06 17:45 49.41101 10.53817 37851 ft 527 kts 324°
2026-05-06 17:45 49.44196 10.50861 38630 ft 530 kts 325°
2026-05-06 17:45 49.47251 10.47942 39370 ft 491 kts 325°
2026-05-06 17:46 49.50122 10.45208 39647 ft 483 kts 325°
2026-05-06 17:46 49.52984 10.42470 39870 ft 486 kts 324°
2026-05-06 17:46 49.55884 10.39683 40012 ft 497 kts 324°
2026-05-06 17:46 49.58875 10.36843 40009 ft 511 kts 326°
2026-05-06 17:47 49.61857 10.34030 39990 ft 490 kts 324°
2026-05-06 17:47 49.64692 10.31259 39995 ft 479 kts 324°
2026-05-06 17:47 49.70444 10.25749 40014 ft 498 kts 324°
2026-05-06 17:48 49.76341 10.20064 40023 ft 485 kts 325°
2026-05-06 17:48 49.82062 10.14512 39849 ft 494 kts 325°
2026-05-06 17:49 49.85028 10.11644 39830 ft 510 kts 325°
2026-05-06 17:49 49.88090 10.08666 39820 ft 529 kts 325°
2026-05-06 17:49 49.94298 10.02631 39809 ft 523 kts 325°
2026-05-06 17:50 50.00483 9.96588 39801 ft 528 kts 325°
2026-05-06 17:50 50.06697 9.90503 39796 ft 525 kts 325°
2026-05-06 17:51 50.12898 9.84411 39798 ft 529 kts 325°
2026-05-06 17:51 50.19115 9.78286 39800 ft 527 kts 325°
2026-05-06 17:52 50.25316 9.72156 39799 ft 529 kts 324°
2026-05-06 17:52 50.31526 9.65999 39798 ft 527 kts 324°
2026-05-06 17:53 50.37726 9.59831 39800 ft 529 kts 324°
2026-05-06 17:53 50.43926 9.53646 39798 ft 527 kts 324°
2026-05-06 17:54 50.50117 9.47448 39799 ft 529 kts 324°
2026-05-06 17:54 50.56286 9.41255 39799 ft 527 kts 324°
2026-05-06 17:55 50.62469 9.35026 39799 ft 528 kts 324°
2026-05-06 17:55 50.68657 9.28775 39804 ft 527 kts 324°
2026-05-06 17:56 50.74827 9.22519 39809 ft 527 kts 324°
2026-05-06 17:56 50.81000 9.16243 39809 ft 527 kts 324°
2026-05-06 17:57 50.87148 9.09970 39812 ft 526 kts 324°
2026-05-06 17:57 50.93275 9.03701 39821 ft 527 kts 324°
2026-05-06 17:58 50.99459 8.97398 39843 ft 531 kts 328°
2026-05-06 17:58 51.06096 8.92257 39839 ft 530 kts 338°
2026-05-06 17:59 51.13118 8.88652 39838 ft 533 kts 336°
2026-05-06 17:59 51.20143 8.84773 39835 ft 532 kts 338°
2026-05-06 18:00 51.25941 8.81534 39839 ft 533 kts 339°
2026-05-06 18:00 51.32960 8.77675 39848 ft 531 kts 338°
2026-05-06 18:01 51.39939 8.73817 39855 ft 532 kts 338°
2026-05-06 18:01 51.46923 8.69932 39849 ft 530 kts 338°
2026-05-06 18:02 51.53883 8.66051 39848 ft 530 kts 338°
2026-05-06 18:02 51.60858 8.62152 39848 ft 529 kts 338°
2026-05-06 18:03 51.67799 8.58257 39851 ft 530 kts 338°
2026-05-06 18:03 51.74733 8.54355 39857 ft 530 kts 338°
2026-05-06 18:04 51.81679 8.50432 39862 ft 529 kts 338°
2026-05-06 18:04 51.88649 8.46484 39866 ft 530 kts 338°
2026-05-06 18:05 51.95594 8.42536 39870 ft 529 kts 338°
2026-05-06 18:05 52.02522 8.38586 39877 ft 529 kts 338°
2026-05-06 18:06 52.09455 8.34618 39883 ft 528 kts 338°
2026-05-06 18:06 52.16406 8.30645 39879 ft 530 kts 341°
2026-05-06 18:07 52.20035 8.29608 39914 ft 532 kts 355°
2026-05-06 18:07 52.23761 8.29493 39911 ft 538 kts 359°
2026-05-06 18:07 52.31194 8.31115 39915 ft 539 kts
2026-05-06 18:08 52.38615 8.32743 39906 ft 540 kts
2026-05-06 18:08 52.46046 8.34457 39902 ft 537 kts
2026-05-06 18:09 52.53463 8.36182 39905 ft 539 kts
2026-05-06 18:09 52.60857 8.37881 39905 ft 537 kts
2026-05-06 18:10 52.68265 8.39584 39905 ft 540 kts
2026-05-06 18:10 52.73242 8.40740 39902 ft 538 kts
2026-05-06 18:11 52.78315 8.41914 39905 ft 537 kts
2026-05-06 18:11 52.85741 8.43643 39906 ft 540 kts
2026-05-06 18:12 52.93155 8.45375 39909 ft 537 kts
2026-05-06 18:12 53.00576 8.47113 39905 ft 539 kts
2026-05-06 18:13 53.07949 8.48847 39905 ft 537 kts
2026-05-06 18:13 53.15377 8.50598 39808 ft 543 kts
2026-05-06 18:14 53.19150 8.51483 39137 ft 546 kts
2026-05-06 18:14 53.22878 8.52360 38476 ft 538 kts
2026-05-06 18:14 53.26585 8.53234 37543 ft 538 kts
2026-05-06 18:14 53.30294 8.54108 36318 ft 534 kts
2026-05-06 18:15 53.33949 8.54971 35199 ft 527 kts
2026-05-06 18:15 53.37572 8.55829 34160 ft 525 kts
2026-05-06 18:15 53.41135 8.56674 33034 ft 524 kts
2026-05-06 18:15 53.44754 8.57532 31847 ft 529 kts
2026-05-06 18:16 53.48417 8.58400 30635 ft 530 kts
2026-05-06 18:16 53.52057 8.59263 29420 ft 532 kts
2026-05-06 18:16 53.55754 8.60139 28146 ft 535 kts
2026-05-06 18:16 53.59449 8.61015 26954 ft 536 kts
2026-05-06 18:17 53.63156 8.61897 25804 ft 540 kts
2026-05-06 18:17 53.66882 8.62809 24854 ft 537 kts
2026-05-06 18:17 53.70593 8.63726 24840 ft 544 kts
2026-05-06 18:17 53.74353 8.64654 24778 ft 542 kts
2026-05-06 18:18 53.78111 8.65520 24094 ft 547 kts
2026-05-06 18:18 53.81820 8.66284 23463 ft 545 kts 360°
2026-05-06 18:18 53.85445 8.64558 22114 ft 527 kts 324°
2026-05-06 18:18 53.87611 8.59825 21421 ft 514 kts 284°
2026-05-06 18:19 53.87246 8.54017 21063 ft 505 kts 249°
2026-05-06 18:19 53.85846 8.48539 20844 ft 506 kts 245°
2026-05-06 18:19 53.84241 8.43238 20483 ft 509 kts 242°
2026-05-06 18:19 53.82548 8.37997 20035 ft 512 kts 241°
2026-05-06 18:20 53.80774 8.32855 19426 ft 501 kts 239°
2026-05-06 18:20 53.78938 8.27817 18736 ft 524 kts 238°
2026-05-06 18:20 53.76901 8.22451 17692 ft 552 kts 237°
2026-05-06 18:20 53.74648 8.17171 16682 ft 546 kts 232°
2026-05-06 18:21 53.72372 8.12558 16390 ft 484 kts 229°
2026-05-06 18:21 53.69595 8.10398 15940 ft 424 kts 178°
2026-05-06 18:21 53.67167 8.12459 14825 ft 378 kts 129°
2026-05-06 18:21 53.66138 8.16281 14171 ft 348 kts 105°
2026-05-06 18:22 53.65512 8.20365 13967 ft 377 kts 104°
2026-05-06 18:22 53.64870 8.24956 13867 ft 420 kts 102°
2026-05-06 18:22 53.64242 8.29981 14957 ft 459 kts 101°
2026-05-06 18:22 53.63701 8.35499 16247 ft 497 kts 97°
2026-05-06 18:23 53.63399 8.41456 17956 ft 528 kts 95°
2026-05-06 18:23 53.63215 8.47252 19696 ft 463 kts 92°
2026-05-06 18:23 53.63241 8.52334 20053 ft 410 kts 89°
2026-05-06 18:23 53.63321 8.56791 20003 ft 315 kts 90°
2026-05-06 18:24 53.63405 8.59800 19695 ft 249 kts 75°
2026-05-06 18:24 53.63988 8.63133 19574 ft 367 kts 72°
2026-05-06 18:24 53.65283 8.68247 20158 ft 548 kts 67°
2026-05-06 18:24 53.66527 8.73326 20101 ft 387 kts 68°
2026-05-06 18:25 53.67538 8.77323 20005 ft 374 kts 59°
2026-05-06 18:25 53.69249 8.80897 20320 ft 397 kts 40°
2026-05-06 18:25 53.71614 8.83336 20858 ft 374 kts 19°
2026-05-06 18:25 53.74228 8.84350 20856 ft 393 kts
2026-05-06 18:26 53.76924 8.83915 20863 ft 383 kts 342°
2026-05-06 18:26 53.79292 8.82125 20870 ft 368 kts 325°
2026-05-06 18:26 53.81222 8.79253 20874 ft 378 kts 308°
2026-05-06 18:26 53.82564 8.75546 20862 ft 366 kts 291°
2026-05-06 18:27 53.83239 8.71265 20833 ft 363 kts 274°
2026-05-06 18:27 53.83146 8.67058 20840 ft 373 kts 258°
2026-05-06 18:27 53.82360 8.62986 20859 ft 362 kts 249°
2026-05-06 18:27 53.81535 8.58962 20847 ft 365 kts 252°
2026-05-06 18:28 53.80698 8.54797 20864 ft 381 kts 250°
2026-05-06 18:28 53.79815 8.50686 20870 ft 379 kts 250°
2026-05-06 18:28 53.78915 8.46674 20875 ft 373 kts 249°
2026-05-06 18:28 53.77982 8.42618 20876 ft 364 kts 249°
2026-05-06 18:29 53.77048 8.38597 20881 ft 371 kts 249°
2026-05-06 18:29 53.76112 8.34585 20872 ft 368 kts 249°
2026-05-06 18:29 53.75177 8.30572 20891 ft 360 kts 249°
2026-05-06 18:29 53.74256 8.26632 20865 ft 346 kts 248°
2026-05-06 18:30 53.73367 8.22882 20811 ft 366 kts 249°
2026-05-06 18:30 53.72466 8.18916 20883 ft 362 kts 249°
2026-05-06 18:30 53.71551 8.14926 20886 ft 366 kts 249°
2026-05-06 18:30 53.70625 8.10888 20906 ft 362 kts 249°
2026-05-06 18:31 53.69711 8.06922 20903 ft 369 kts 249°
2026-05-06 18:31 53.68790 8.02907 20902 ft 361 kts 249°
2026-05-06 18:31 53.67868 7.98882 20904 ft 367 kts 249°
2026-05-06 18:31 53.66958 7.94913 20907 ft 375 kts 249°
2026-05-06 18:32 53.66038 7.90901 20904 ft 354 kts 249°
2026-05-06 18:32 53.65139 7.86967 20906 ft 359 kts 249°
2026-05-06 18:32 53.64098 7.83090 20866 ft 369 kts 238°
2026-05-06 18:32 53.62444 7.79861 20886 ft 363 kts 221°
2026-05-06 18:33 53.60274 7.77573 20876 ft 371 kts 205°
2026-05-06 18:33 53.57825 7.76455 20873 ft 366 kts 187°
2026-05-06 18:33 53.55228 7.76593 20867 ft 385 kts 171°
2026-05-06 18:33 53.52755 7.78040 20860 ft 377 kts 153°
2026-05-06 18:34 53.50599 7.80741 20870 ft 384 kts 135°
2026-05-06 18:34 53.49059 7.84365 20869 ft 390 kts 117°
2026-05-06 18:34 53.48219 7.88729 20869 ft 393 kts 98°
2026-05-06 18:34 53.48216 7.93271 20864 ft 392 kts 79°
2026-05-06 18:35 53.49049 7.97685 20876 ft 394 kts 66°
2026-05-06 18:35 53.50089 8.01778 20881 ft 393 kts 67°
2026-05-06 18:35 53.51129 8.06114 20929 ft 392 kts 67°
2026-05-06 18:35 53.52162 8.10363 20926 ft 392 kts 68°
2026-05-06 18:36 53.53164 8.14671 20927 ft 401 kts 69°
2026-05-06 18:36 53.54172 8.19076 20661 ft 406 kts 68°
2026-05-06 18:36 53.55254 8.23609 20229 ft 429 kts 67°
2026-05-06 18:36 53.56382 8.28140 19566 ft 414 kts 66°
2026-05-06 18:37 53.57581 8.32426 18881 ft 403 kts 56°
2026-05-06 18:37 53.58776 8.34862 18416 ft 400 kts 40°
2026-05-06 18:37 53.62039 8.37343 17366 ft 389 kts
2026-05-06 18:37 53.64734 8.37685 16458 ft 381 kts
2026-05-06 18:38 53.67352 8.38051 15575 ft 375 kts
2026-05-06 18:38 53.69937 8.38295 14722 ft 366 kts
2026-05-06 18:38 53.72466 8.38592 13892 ft 362 kts
2026-05-06 18:38 53.74949 8.38896 13007 ft 355 kts
2026-05-06 18:39 53.77412 8.39072 12050 ft 354 kts
2026-05-06 18:39 53.79834 8.39192 10832 ft 344 kts
2026-05-06 18:39 53.82208 8.39295 9719 ft 338 kts
2026-05-06 18:40 53.86784 8.39167 7471 ft 324 kts 359°
2026-05-06 18:40 53.88967 8.38577 6882 ft 324 kts 338°
2026-05-06 18:40 53.90809 8.36293 6636 ft 332 kts 319°
2026-05-06 18:40 53.92439 8.33547 6490 ft 333 kts 316°
2026-05-06 18:41 53.94041 8.30730 6331 ft 331 kts 317°
2026-05-06 18:41 53.95633 8.27907 6158 ft 330 kts 315°
2026-05-06 18:41 53.97182 8.25010 5976 ft 331 kts 314°
2026-05-06 18:41 53.98672 8.22049 5357 ft 328 kts 312°
2026-05-06 18:42 54.00087 8.19065 4728 ft 324 kts 310°
2026-05-06 18:42 54.01437 8.15992 4080 ft 322 kts 309°
2026-05-06 18:42 54.02782 8.12977 3450 ft 319 kts 310°
2026-05-06 18:42 54.04015 8.09839 2835 ft 320 kts 303°
2026-05-06 18:43 54.05228 8.06751 2236 ft 314 kts 309°
2026-05-06 18:43 54.06579 8.03852 1944 ft 310 kts 313°
2026-05-06 18:43 54.07942 8.01013 1661 ft 306 kts 313°
2026-05-06 18:43 54.09277 7.98181 1451 ft 304 kts 311°
2026-05-06 18:44 54.10494 7.95241 1231 ft 303 kts 304°
2026-05-06 18:44 54.11460 7.92065 978 ft 299 kts 302°
2026-05-06 18:44 54.12733 7.89326 1037 ft 293 kts 322°
2026-05-06 18:44 54.14406 7.87365 1136 ft 294 kts 333°
2026-05-06 18:45 54.16190 7.85646 1175 ft 295 kts 333°
2026-05-06 18:45 54.17356 7.84452 1191 ft 294 kts 330°
2026-05-06 18:45 54.19197 7.83656 1075 ft 287 kts 23°
2026-05-06 18:45 54.20225 7.86379 779 ft 307 kts 86°
2026-05-06 18:46 54.19685 7.89884 719 ft 309 kts 114°
2026-05-06 18:46 54.18355 7.92767 739 ft 315 kts 141°
2026-05-06 18:46 54.16291 7.93909 622 ft 319 kts 185°
2026-05-06 18:46 54.14057 7.93591 1072 ft 327 kts 184°
2026-05-06 18:47 54.11819 7.93257 1647 ft 321 kts 182°
2026-05-06 18:47 54.09586 7.92902 1951 ft 324 kts 183°
2026-05-06 18:47 54.07388 7.92525 2017 ft 320 kts 183°
2026-05-06 18:47 54.05161 7.92137 2056 ft 323 kts 184°
2026-05-06 18:48 54.02942 7.91740 2044 ft 320 kts 184°
2026-05-06 18:48 54.00721 7.91338 2043 ft 318 kts 184°
2026-05-06 18:48 53.98509 7.90930 2039 ft 320 kts 184°
2026-05-06 18:48 53.96294 7.90531 2057 ft 321 kts 183°
2026-05-06 18:49 53.94074 7.90139 2073 ft 320 kts 184°
2026-05-06 18:49 53.91861 7.89749 2094 ft 320 kts 183°
2026-05-06 18:49 53.89671 7.89365 2133 ft 319 kts 183°
2026-05-06 18:49 53.87456 7.88975 2165 ft 319 kts 183°
2026-05-06 18:50 53.85244 7.88588 2206 ft 319 kts 183°
2026-05-06 18:50 53.83028 7.88199 2248 ft 321 kts 183°
2026-05-06 18:50 53.80812 7.87806 2301 ft 318 kts 183°
2026-05-06 18:50 53.78596 7.87409 2301 ft 321 kts 183°
2026-05-06 18:51 53.76342 7.87010 2307 ft 362 kts 184°
2026-05-06 18:51 53.73680 7.86569 6245 ft 403 kts 183°
2026-05-06 18:51 53.70803 7.86167 12447 ft 428 kts 182°
2026-05-06 18:51 53.67473 7.86301 15927 ft 538 kts 179°
2026-05-06 18:52 53.63553 7.87629 15907 ft 578 kts 164°
2026-05-06 18:52 53.59713 7.89649 15877 ft 581 kts 161°
2026-05-06 18:52 53.56196 7.92886 15721 ft 562 kts 142°
2026-05-06 18:52 53.53698 7.97883 15732 ft 563 kts 116°
2026-05-06 18:53 53.53255 8.04291 15787 ft 566 kts 74°
2026-05-06 18:53 53.55340 8.09603 15736 ft 561 kts 36°
2026-05-06 18:53 53.58822 8.12072 14635 ft 533 kts 355°
2026-05-06 18:53 53.61517 8.08918 12118 ft 354 kts 265°
2026-05-06 18:54 53.61364 8.08767 15460 ft 125 kts 82°
2026-05-06 18:54 53.62261 8.09593 13620 ft 226 kts 318°
2026-05-06 18:54 53.63696 8.07874 13103 ft 259 kts 315°
2026-05-06 18:54 53.65251 8.05617 13076 ft 340 kts 319°
2026-05-06 18:55 53.67504 8.02932 13063 ft 433 kts 345°
2026-05-06 18:55 53.69923 8.05060 11541 ft 445 kts 74°
2026-05-06 18:55 53.69625 8.10567 11664 ft 543 kts 111°
2026-05-06 18:55 53.67122 8.09376 12151 ft 510 kts 214°
2026-05-06 18:56 53.63781 8.10992 14926 ft 637 kts 120°
2026-05-06 18:56 53.63039 8.18233 15078 ft 623 kts 103°
2026-05-06 18:56 53.60342 8.23189 13951 ft 619 kts 172°
2026-05-06 18:56 53.59150 8.19271 13670 ft 571 kts 314°
2026-05-06 18:57 53.61311 8.13412 14243 ft 591 kts 296°
2026-05-06 18:57 53.62646 8.06951 16107 ft 601 kts 276°
2026-05-06 18:57 53.63690 8.01022 12105 ft 493 kts 12°
2026-05-06 18:57 53.65765 8.06166 9799 ft 607 kts 75°
2026-05-06 18:58 53.63660 8.10135 10018 ft 602 kts 200°
2026-05-06 18:58 53.61075 8.04824 11762 ft 602 kts 247°
2026-05-06 18:58 53.59674 7.98743 13470 ft 496 kts 251°
2026-05-06 18:58 53.58309 7.93241 14437 ft 530 kts 247°
2026-05-06 18:59 53.56871 7.87327 15346 ft 544 kts 248°
2026-05-06 18:59 53.55647 7.81364 15388 ft 561 kts 251°
2026-05-06 18:59 53.54323 7.76239 15374 ft 382 kts 246°
2026-05-06 18:59 53.53314 7.72440 15422 ft 368 kts 250°
2026-05-06 19:00 53.52412 7.68326 15592 ft 375 kts 251°
2026-05-06 19:00 53.51528 7.64255 15632 ft 370 kts 251°
2026-05-06 19:00 53.50689 7.60251 15657 ft 367 kts 256°
2026-05-06 19:00 53.50608 7.56042 15668 ft 365 kts 285°
2026-05-06 19:01 53.51815 7.52341 15661 ft 367 kts 314°
2026-05-06 19:01 53.54007 7.50183 15550 ft 369 kts 345°
2026-05-06 19:01 53.56582 7.50260 15388 ft 379 kts 16°
2026-05-06 19:01 53.58793 7.52591 15052 ft 381 kts 47°
2026-05-06 19:02 53.60023 7.56486 14579 ft 380 kts 76°
2026-05-06 19:02 53.60117 7.60904 14229 ft 379 kts 93°
2026-05-06 19:02 53.59938 7.65344 14146 ft 378 kts 93°
2026-05-06 19:02 53.59754 7.69768 14038 ft 378 kts 93°
2026-05-06 19:03 53.59570 7.74173 13926 ft 377 kts 94°
2026-05-06 19:03 53.59385 7.78578 13804 ft 377 kts 93°
2026-05-06 19:03 53.59203 7.82971 13684 ft 375 kts 93°
2026-05-06 19:03 53.59020 7.87352 13556 ft 375 kts 93°
2026-05-06 19:04 53.58838 7.91721 13505 ft 374 kts 93°
2026-05-06 19:04 53.58657 7.96025 13464 ft 373 kts 93°
2026-05-06 19:04 53.58472 8.00397 13425 ft 373 kts 94°
2026-05-06 19:04 53.58286 8.04759 13387 ft 373 kts 94°
2026-05-06 19:05 53.58097 8.09122 13356 ft 373 kts 94°
2026-05-06 19:05 53.57907 8.13486 13414 ft 373 kts 94°
2026-05-06 19:05 53.57715 8.17851 13574 ft 375 kts 94°
2026-05-06 19:05 53.57480 8.22226 13688 ft 358 kts 109°
2026-05-06 19:06 53.55672 8.24839 14189 ft 377 kts 174°
2026-05-06 19:06 53.52999 8.24565 14415 ft 407 kts 201°
2026-05-06 19:06 53.50766 8.21303 14648 ft 459 kts 252°
2026-05-06 19:06 53.51098 8.15618 15793 ft 517 kts 289°
2026-05-06 19:07 53.52519 8.09296 16378 ft 607 kts 296°
2026-05-06 19:07 53.55430 8.04447 15915 ft 598 kts 342°
2026-05-06 19:07 53.59459 8.04515 16207 ft 582 kts 20°
2026-05-06 19:07 53.61370 8.08763 13886 ft 472 kts 127°
2026-05-06 19:08 53.58970 8.10948 13499 ft 314 kts 126°
2026-05-06 19:08 53.58802 8.14058 11815 ft 292 kts 50°
2026-05-06 19:08 53.60345 8.15543 13800 ft 115 kts 335°
2026-05-06 19:08 53.59920 8.15487 16387 ft 163 kts 203°
2026-05-06 19:09 53.58554 8.14399 15763 ft 258 kts 206°
2026-05-06 19:09 53.57058 8.12247 15546 ft 319 kts 232°
2026-05-06 19:09 53.55542 8.09145 15454 ft 355 kts 232°
2026-05-06 19:09 53.53900 8.06052 15523 ft 332 kts 208°
2026-05-06 19:10 53.52038 8.06355 15316 ft 274 kts 142°
2026-05-06 19:10 53.51389 8.09026 14965 ft 250 kts 58°
2026-05-06 19:10 53.52752 8.10872 14503 ft 293 kts 30°
2026-05-06 19:10 53.54667 8.13442 14083 ft 418 kts 45°
2026-05-06 19:11 53.56671 8.18055 13996 ft 561 kts 56°
2026-05-06 19:11 53.58670 8.24032 14027 ft 568 kts 60°
2026-05-06 19:11 53.60475 8.29608 13874 ft 520 kts 60°
2026-05-06 19:11 53.62143 8.34802 13612 ft 487 kts 60°
2026-05-06 19:12 53.63662 8.39514 14182 ft 440 kts 60°
2026-05-06 19:12 53.64451 8.43846 14604 ft 313 kts 135°
2026-05-06 19:12 53.63166 8.43149 14274 ft 241 kts 272°
2026-05-06 19:12 53.62919 8.40423 14105 ft 254 kts 253°
2026-05-06 19:13 53.62267 8.37038 13809 ft 353 kts 253°
2026-05-06 19:13 53.61379 8.32370 13724 ft 491 kts 253°
2026-05-06 19:13 53.60219 8.26173 13771 ft 592 kts 253°
2026-05-06 19:13 53.58989 8.19594 13761 ft 577 kts 253°
2026-05-06 19:14 53.58172 8.12869 13504 ft 613 kts 271°
2026-05-06 19:14 53.58223 8.05529 14339 ft 635 kts 270°
2026-05-06 19:14 53.58085 7.98236 15189 ft 609 kts 265°
2026-05-06 19:14 53.57475 7.91341 15942 ft 587 kts 252°
2026-05-06 19:15 53.56134 7.84843 15967 ft 589 kts 251°
2026-05-06 19:15 53.54761 7.78371 15951 ft 585 kts 251°
2026-05-06 19:15 53.53317 7.72067 15302 ft 589 kts 245°
2026-05-06 19:15 53.51499 7.65903 13771 ft 592 kts 259°
2026-05-06 19:16 53.52978 7.60938 13362 ft 387 kts 25°
2026-05-06 19:16 53.54404 7.61719 10083 ft 227 kts 35°
2026-05-06 19:16 53.55474 7.63925 10027 ft 267 kts 71°
2026-05-06 19:16 53.56194 7.67491 10042 ft 397 kts 67°
2026-05-06 19:17 53.57562 7.72594 10628 ft 543 kts 58°
2026-05-06 19:17 53.59192 7.76762 15565 ft 338 kts 78°
2026-05-06 19:17 53.58241 7.77074 19142 ft 214 kts 197°
2026-05-06 19:17 53.56570 7.76813 19431 ft 263 kts 178°
2026-05-06 19:18 53.54659 7.77617 19449 ft 306 kts 163°
2026-05-06 19:18 53.52549 7.79273 19604 ft 370 kts 148°
2026-05-06 19:18 53.50394 7.82429 20012 ft 453 kts 130°
2026-05-06 19:18 53.48850 7.87591 20421 ft 546 kts 108°
2026-05-06 19:19 53.48377 7.93476 20959 ft 466 kts 83°
2026-05-06 19:19 53.49365 7.98444 20652 ft 428 kts 68°
2026-05-06 19:19 53.50507 8.03189 20908 ft 405 kts 66°
2026-05-06 19:19 53.51585 8.07475 20919 ft 403 kts 68°
2026-05-06 19:20 53.52557 8.11642 20880 ft 366 kts 70°
2026-05-06 19:20 53.53509 8.16023 20874 ft 410 kts 70°
2026-05-06 19:20 53.54422 8.20188 20852 ft 402 kts 69°
2026-05-06 19:20 53.55433 8.24737 20874 ft 397 kts 69°
2026-05-06 19:21 53.56398 8.29072 20870 ft 409 kts 69°
2026-05-06 19:21 53.57357 8.33365 20901 ft 396 kts 69°
2026-05-06 19:21 53.58305 8.37631 20895 ft 385 kts 69°
2026-05-06 19:21 53.59260 8.41911 20903 ft 383 kts 69°
2026-05-06 19:22 53.60214 8.46174 20902 ft 384 kts 70°
2026-05-06 19:22 53.61177 8.50453 20890 ft 375 kts 69°
2026-05-06 19:22 53.62126 8.54680 20882 ft 392 kts 69°
2026-05-06 19:22 53.63092 8.58988 20883 ft 390 kts 69°
2026-05-06 19:23 53.64056 8.63262 20875 ft 394 kts 69°
2026-05-06 19:23 53.65018 8.67520 20867 ft 385 kts 69°
2026-05-06 19:23 53.65992 8.71810 20880 ft 384 kts 69°
2026-05-06 19:23 53.66959 8.76000 20881 ft 395 kts 63°
2026-05-06 19:24 53.68501 8.79820 20899 ft 399 kts 45°
2026-05-06 19:24 53.70626 8.82605 20890 ft 384 kts 26°
2026-05-06 19:24 53.73167 8.84167 20894 ft 384 kts
2026-05-06 19:24 53.75837 8.84309 20903 ft 381 kts 350°
2026-05-06 19:25 53.78347 8.83072 20897 ft 382 kts 332°
2026-05-06 19:25 53.80517 8.80608 20863 ft 367 kts 315°
2026-05-06 19:25 53.82143 8.77218 20891 ft 372 kts 298°
2026-05-06 19:25 53.83101 8.73277 20898 ft 377 kts 281°
2026-05-06 19:26 53.83346 8.68960 20900 ft 372 kts 265°
2026-05-06 19:26 53.82826 8.64661 20934 ft 348 kts 248°
2026-05-06 19:26 53.81998 8.60909 20865 ft 362 kts 250°
2026-05-06 19:26 53.81171 8.56756 20900 ft 384 kts 251°
2026-05-06 19:27 53.80266 8.52491 20931 ft 368 kts 251°
2026-05-06 19:27 53.79382 8.48431 20910 ft 365 kts 249°
2026-05-06 19:27 53.78527 8.44545 20915 ft 345 kts 251°
2026-05-06 19:27 53.77618 8.40574 20932 ft 381 kts 249°
2026-05-06 19:28 53.76661 8.36475 20963 ft 370 kts 249°
2026-05-06 19:28 53.75717 8.32462 20924 ft 360 kts 249°
2026-05-06 19:28 53.74791 8.28508 20923 ft 376 kts 249°
2026-05-06 19:28 53.73842 8.24280 21078 ft 377 kts 250°
2026-05-06 19:29 53.73245 8.21452 21646 ft 398 kts 251°
2026-05-06 19:29 53.72309 8.17002 22068 ft 395 kts 250°
2026-05-06 19:29 53.71350 8.12677 22006 ft 393 kts 243°
2026-05-06 19:29 53.69865 8.08776 22032 ft 401 kts 237°
2026-05-06 19:30 53.68319 8.04875 22018 ft 395 kts 237°
2026-05-06 19:30 53.66784 8.01022 21985 ft 399 kts 237°
2026-05-06 19:30 53.65237 7.97139 21961 ft 395 kts 237°
2026-05-06 19:30 53.63718 7.93331 21927 ft 398 kts 237°
2026-05-06 19:31 53.62155 7.89411 21906 ft 396 kts 237°
2026-05-06 19:31 53.60637 7.85607 21877 ft 397 kts 237°
2026-05-06 19:31 53.57570 7.77921 22219 ft 396 kts 237°
2026-05-06 19:32 53.55902 7.74182 22659 ft 399 kts 224°
2026-05-06 19:32 53.53587 7.71655 23131 ft 405 kts 202°
2026-05-06 19:32 53.50785 7.70817 23647 ft 413 kts 187°
2026-05-06 19:32 53.47918 7.70382 24200 ft 419 kts 187°
2026-05-06 19:33 53.44987 7.69924 24812 ft 422 kts 187°
2026-05-06 19:33 53.42085 7.69472 25421 ft 418 kts 187°
2026-05-06 19:33 53.39158 7.69015 26154 ft 424 kts 187°
2026-05-06 19:33 53.36203 7.68551 27170 ft 430 kts 187°
2026-05-06 19:34 53.33207 7.68080 28286 ft 435 kts 187°
2026-05-06 19:34 53.30175 7.67606 29529 ft 440 kts 187°
2026-05-06 19:34 53.27106 7.67146 30739 ft 448 kts 186°
2026-05-06 19:34 53.23990 7.66677 32013 ft 459 kts 187°
2026-05-06 19:35 53.20757 7.66179 33206 ft 472 kts 187°
2026-05-06 19:35 53.17450 7.65664 34382 ft 480 kts 187°
2026-05-06 19:35 53.14064 7.65132 35531 ft 495 kts 187°
2026-05-06 19:35 53.10575 7.64579 36441 ft 515 kts 187°
2026-05-06 19:36 53.06970 7.64007 37208 ft 515 kts 187°
2026-05-06 19:36 53.03465 7.63455 37983 ft 501 kts 187°
2026-05-06 19:36 53.00013 7.62916 38743 ft 497 kts 187°
2026-05-06 19:36 52.96541 7.62381 39393 ft 505 kts 187°
2026-05-06 19:37 52.93010 7.61861 39945 ft 516 kts 187°
2026-05-06 19:37 52.89430 7.61360 40294 ft 511 kts 186°
2026-05-06 19:37 52.85975 7.60887 40815 ft 501 kts 186°
2026-05-06 19:37 52.82474 7.60408 40874 ft 510 kts 186°
2026-05-06 19:38 52.75366 7.59470 40883 ft 509 kts 186°
2026-05-06 19:38 52.68327 7.58597 40905 ft 506 kts 186°
2026-05-06 19:39 52.61267 7.57702 40930 ft 510 kts 186°
2026-05-06 19:39 52.54203 7.56808 40917 ft 506 kts 186°
2026-05-06 19:40 52.47171 7.55892 40957 ft 508 kts 187°
2026-05-06 19:40 52.40150 7.54847 40948 ft 512 kts 187°
2026-05-06 19:41 52.36506 7.54535 40929 ft 534 kts 179°
2026-05-06 19:41 52.32744 7.55411 40923 ft 553 kts 166°
2026-05-06 19:41 52.29121 7.57652 40960 ft 556 kts 154°
2026-05-06 19:41 52.25807 7.60708 40947 ft 543 kts 153°
2026-05-06 19:42 52.19201 7.66734 40925 ft 544 kts 153°
2026-05-06 19:42 52.12634 7.72740 40949 ft 541 kts 153°
2026-05-06 19:43 52.05973 7.78810 40984 ft 561 kts 153°
2026-05-06 19:43 52.02523 7.81940 41000 ft 574 kts 153°
2026-05-06 19:43 51.98998 7.85130 41010 ft 587 kts 153°
2026-05-06 19:44 51.95438 7.88344 41003 ft 599 kts 153°
2026-05-06 19:44 51.91711 7.91699 41007 ft 610 kts 153°
2026-05-06 19:44 51.84354 7.98303 40980 ft 601 kts 153°
2026-05-06 19:45 51.77430 8.04495 40952 ft 602 kts 153°
2026-05-06 19:45 51.70057 8.11075 40998 ft 606 kts 153°
2026-05-06 19:46 51.62691 8.17638 41007 ft 604 kts 153°
2026-05-06 19:46 51.55341 8.24177 40973 ft 604 kts 153°
2026-05-06 19:47 51.47968 8.30696 40907 ft 604 kts 154°
2026-05-06 19:47 51.40494 8.36832 40849 ft 603 kts 155°
2026-05-06 19:48 51.33013 8.42930 40764 ft 603 kts 155°
2026-05-06 19:48 51.25747 8.49474 40740 ft 603 kts 151°
2026-05-06 19:49 51.18535 8.56364 40727 ft 604 kts 151°
2026-05-06 19:49 51.11323 8.63238 40734 ft 604 kts 151°
2026-05-06 19:50 51.04101 8.70005 40814 ft 603 kts 152°
2026-05-06 19:50 50.96844 8.76752 40807 ft 604 kts 152°
2026-05-06 19:51 50.89594 8.83482 40893 ft 603 kts 152°
2026-05-06 19:51 50.82307 8.90148 40919 ft 603 kts 152°
2026-05-06 19:52 50.75056 8.96749 40928 ft 603 kts 152°
2026-05-06 19:52 50.67788 9.03355 40922 ft 602 kts 152°
2026-05-06 19:53 50.60569 9.09908 40892 ft 602 kts 152°
2026-05-06 19:53 50.53307 9.16488 40824 ft 602 kts 152°
2026-05-06 19:54 50.46055 9.23049 40806 ft 600 kts 152°
2026-05-06 19:54 50.38860 9.29551 40876 ft 601 kts 152°
2026-05-06 19:55 50.31602 9.36097 40919 ft 602 kts 152°
2026-05-06 19:55 50.24327 9.42650 40932 ft 601 kts 152°
2026-05-06 19:56 50.17089 9.49160 40887 ft 600 kts 152°
2026-05-06 19:56 50.09885 9.55629 40814 ft 600 kts 152°
2026-05-06 19:57 50.02643 9.62117 40720 ft 604 kts 152°
2026-05-06 19:57 49.95288 9.68515 40720 ft 599 kts 153°
2026-05-06 19:58 49.91726 9.71611 40672 ft 577 kts 153°
2026-05-06 19:58 49.88284 9.74609 40624 ft 557 kts 153°
2026-05-06 19:58 49.84964 9.77489 40672 ft 536 kts 157°
2026-05-06 19:58 49.81714 9.80272 40666 ft 535 kts 153°
2026-05-06 19:59 49.75178 9.85932 40777 ft 537 kts 154°
2026-05-06 19:59 49.68631 9.91477 40805 ft 536 kts 154°
2026-05-06 20:00 49.61832 9.95942 40264 ft 536 kts 162°
2026-05-06 20:00 49.58363 9.97955 39244 ft 526 kts 162°
2026-05-06 20:00 49.54971 9.99932 38218 ft 512 kts 162°
2026-05-06 20:01 49.51697 10.01845 37041 ft 495 kts 162°
2026-05-06 20:01 49.48535 10.03701 35944 ft 477 kts 162°
2026-05-06 20:01 49.45490 10.05497 34917 ft 458 kts 162°
2026-05-06 20:01 49.42594 10.07215 33944 ft 439 kts 162°
2026-05-06 20:02 49.39791 10.08888 32841 ft 426 kts 161°
2026-05-06 20:02 49.37044 10.10530 31772 ft 421 kts 161°
2026-05-06 20:02 49.34155 10.12245 30647 ft 460 kts 161°
2026-05-06 20:02 49.31230 10.13976 29357 ft 441 kts 161°
2026-05-06 20:03 49.28401 10.15655 28023 ft 432 kts 161°
2026-05-06 20:03 49.25635 10.17298 26770 ft 417 kts 161°
2026-05-06 20:03 49.22978 10.18874 25677 ft 403 kts 160°
2026-05-06 20:03 49.20378 10.20385 24692 ft 396 kts 161°
2026-05-06 20:04 49.17822 10.21886 23675 ft 390 kts 154°
2026-05-06 20:04 49.15704 10.24371 22530 ft 392 kts 134°
2026-05-06 20:04 49.14095 10.27795 21426 ft 390 kts 128°
2026-05-06 20:04 49.12591 10.31165 20498 ft 388 kts 128°
2026-05-06 20:05 49.11069 10.34575 19592 ft 387 kts 128°
2026-05-06 20:05 49.09565 10.37946 18867 ft 381 kts 128°
2026-05-06 20:05 49.08084 10.41265 18843 ft 387 kts 128°
2026-05-06 20:05 49.06577 10.44638 18833 ft 382 kts 128°
2026-05-06 20:06 49.05066 10.48011 18806 ft 386 kts 128°
2026-05-06 20:06 49.03537 10.51355 18820 ft 384 kts 128°
2026-05-06 20:06 49.02004 10.54709 18821 ft 385 kts 128°
2026-05-06 20:06 49.00469 10.58066 18831 ft 386 kts 128°
2026-05-06 20:07 48.98939 10.61413 18837 ft 384 kts 128°
2026-05-06 20:07 48.97396 10.64785 18559 ft 387 kts 128°
2026-05-06 20:07 48.95867 10.68126 17841 ft 384 kts 128°
2026-05-06 20:07 48.94375 10.71389 16989 ft 377 kts 128°
2026-05-06 20:08 48.92874 10.74674 16143 ft 377 kts 128°
2026-05-06 20:08 48.91386 10.77932 15365 ft 372 kts 128°
2026-05-06 20:08 48.89907 10.81171 14604 ft 372 kts 128°
2026-05-06 20:08 48.88434 10.84399 13874 ft 369 kts 128°
2026-05-06 20:09 48.86970 10.87607 13048 ft 367 kts 128°
2026-05-06 20:09 48.85568 10.90668 12222 ft 346 kts 128°
2026-05-06 20:09 48.84225 10.93602 11461 ft 338 kts 127°
2026-05-06 20:09 48.83302 10.96845 10700 ft 341 kts 101°
2026-05-06 20:10 48.83752 11.00230 10849 ft 360 kts 62°
2026-05-06 20:10 48.85345 11.03023 10870 ft 348 kts 31°
2026-05-06 20:10 48.87520 11.04705 10887 ft 346 kts 23°
2026-05-06 20:10 48.89710 11.06273 10785 ft 346 kts 23°
2026-05-06 20:11 48.91885 11.07830 10553 ft 346 kts 24°
2026-05-06 20:11 48.94003 11.09365 10245 ft 341 kts 25°
2026-05-06 20:11 48.95909 11.11459 9922 ft 340 kts 47°
2026-05-06 20:11 48.97174 11.14489 9570 ft 338 kts 70°
2026-05-06 20:12 48.97663 11.17958 9163 ft 339 kts 84°
2026-05-06 20:12 48.97952 11.21472 8690 ft 332 kts 84°
2026-05-06 20:12 48.98231 11.24960 8179 ft 330 kts 84°
2026-05-06 20:12 48.98504 11.28404 7908 ft 331 kts 84°
2026-05-06 20:13 48.98543 11.31903 7811 ft 329 kts 99°
2026-05-06 20:13 48.97888 11.35176 7564 ft 322 kts 121°
2026-05-06 20:13 48.96518 11.37865 7244 ft 320 kts 135°
2026-05-06 20:13 48.95051 11.40333 6902 ft 320 kts 133°
2026-05-06 20:14 48.93588 11.42872 6558 ft 316 kts 134°
2026-05-06 20:14 48.92112 11.45370 6202 ft 316 kts 134°
2026-05-06 20:14 48.90652 11.47841 5983 ft 318 kts 134°
2026-05-06 20:14 48.89069 11.50117 5766 ft 310 kts 150°
2026-05-06 20:15 48.87095 11.51304 5553 ft 303 kts 174°
2026-05-06 20:15 48.85145 11.51788 5267 ft 279 kts 174°
2026-05-06 20:15 48.83245 11.52246 4963 ft 274 kts 175°
2026-05-06 20:15 48.81993 11.52545 4767 ft 273 kts 175°
2026-05-06 20:16 48.80129 11.52992 4476 ft 272 kts 175°
2026-05-06 20:16 48.78257 11.53444 4183 ft 270 kts 175°
2026-05-06 20:16 48.76400 11.53905 3898 ft 270 kts 175°
2026-05-06 20:16 48.74551 11.54364 3615 ft 270 kts 175°
2026-05-06 20:17 48.72777 11.54225 3364 ft 257 kts 207°
2026-05-06 20:17 48.71440 11.52622 3213 ft 240 kts 242°
2026-05-06 20:17 48.70667 11.50361 3091 ft 237 kts 250°
2026-05-06 20:17 48.70373 11.47894 2989 ft 241 kts 270°
2026-05-06 20:18 48.70442 11.45392 2962 ft 240 kts 275°
2026-05-06 20:18 48.70521 11.42906 2966 ft 229 kts 274°
2026-05-06 20:18 48.70608 11.40682 2944 ft 194 kts 274°
2026-05-06 20:18 48.70671 11.38717 2925 ft 181 kts 273°
2026-05-06 20:19 48.70732 11.36872 2733 ft 164 kts 273°
2026-05-06 20:19 48.70795 11.35017 2500 ft 196 kts 273°
2026-05-06 20:19 48.70876 11.32928 2306 ft 190 kts 271°
2026-05-06 20:19 48.70931 11.30903 2103 ft 213 kts 271°
2026-05-06 20:20 48.70996 11.28629 1955 ft 216 kts 271°
2026-05-06 20:20 48.71066 11.26442 1678 ft 180 kts 269°
2026-05-06 20:20 48.71091 11.24705 1468 ft 162 kts 268°
2026-05-06 20:20 48.71093 11.23051 1308 ft 148 kts 270°
2026-05-06 20:21 48.71100 11.21730 1251 ft 101 kts 270°
2026-05-06 20:21 48.71101 11.20846 1251 ft 68 kts 268°
2026-05-06 20:21 48.71104 11.20432 1249 ft 22 kts 270°
2026-05-06 20:21 48.71053 11.20290 1249 ft 14 kts 173°
2026-05-06 20:22 48.71015 11.20420 1250 ft 17 kts 94°
2026-05-06 20:22 48.71015 11.20648 1251 ft 26 kts 91°
2026-05-06 20:22 48.71012 11.20839 1254 ft 16 kts 88°
2026-05-06 20:22 48.71010 11.21001 1252 ft 15 kts 89°
2026-05-06 20:23 48.71012 11.21190 1252 ft 27 kts 91°
2026-05-06 20:23 48.71011 11.21344 1252 ft 11 kts 93°
2026-05-06 20:23 48.71009 11.21462 1252 ft 11 kts 91°
2026-05-06 20:23 48.71006 11.21613 1251 ft 29 kts 91°
2026-05-06 20:24 48.71008 11.21903 1250 ft 22 kts 85°
2026-05-06 20:24 48.71007 11.22123 1250 ft 20 kts 90°
2026-05-06 20:24 48.71007 11.22349 1254 ft 26 kts 90°
2026-05-06 20:24 48.71004 11.22540 1251 ft 19 kts 91°
2026-05-06 20:25 48.71004 11.22752 1252 ft 20 kts 90°
2026-05-06 20:25 48.70932 11.22795 1258 ft 21 kts 212°
2026-05-06 20:25 48.70850 11.22800 1257 ft 18 kts 137°
2026-05-06 20:25 48.70829 11.22917 1251 ft 7 kts 40°
2026-05-06 20:26 48.70839 11.22907 1259 ft 0 kts 235°